{"data":{"norad_id":63433,"intl_designator":"2025-069A","name":"STARLINK-33682","alt_names":[],"object_type":"PAYLOAD","status":"ACTIVE","operator":null,"country":"US","launch_date":"2025-04-04","launch_site_code":"AFWTR","launch_vehicle":null,"mission":null,"orbit_class":"UNKNOWN","rcs_meters":null,"size_class":null,"mass_kg":null,"dimensions":null,"purposes":["comms"],"wikipedia_slug":null,"has_3d_model":false,"image_url":null,"decayed_at":null,"tle_current":{"epoch":"2026-05-25T00:12:27.621792Z","epoch_age_seconds":70995,"freshness":"FRESH","line1":"1 63433U 25069A   26145.00865303  .00027874  00000+0  64726-3 0  9999","line2":"2 63433  53.1589 145.5653 0001367  80.4748 279.6412 15.42178709 65128","mean_motion":15.42178709,"eccentricity":0.0001367,"inclination_deg":53.1589,"raan_deg":145.5653,"arg_perigee_deg":80.4748,"mean_anomaly_deg":279.6412,"bstar":0.00064726,"rev_number":6512,"period_min":93.374392448573,"perigee_km":438.74851707619,"apogee_km":440.61250838418,"semimajor_km":6817.8175127302,"source":"CELESTRAK","updated_at":"2026-05-25T13:38:19.996636Z"}}}